Regional Weather Roundup
Issued by NWS

Home | Current Version | Previous Version | Text Only | Print | Product List | Glossary Off
Versions: 1 2 3 4 5 6 7 8 9 10 11 12 13 14 15 16 17 18 19 20 21 22 23 24 25 26 27 28 29 30 31 32 33 34 35 36 37 38 39 40 41 42 43 44 45 46 47 48 49 50

000
ASUS43 KLOT 190108
RWRIL

ILLINOIS REGIONAL WEATHER ROUNDUP
NATIONAL WEATHER SERVICE CHICAGO/ROMEOVILLE IL
800 PM CDT FRI AUG 18 2017

NOTE: "FAIR" INDICATES FEW OR NO CLOUDS BELOW 12,000 FEET WITH NO
SIGNIFICANT WEATHER AND/OR OBSTRUCTIONS TO VISIBILITY.

* THESE STATIONS ARE NOT UNDER NWS QUALITY CONTROL. THEY ALSO MAY NOT
  REPORT WEATHER SUCH AS PRECIPITATION OR FOG.

ILZ001-002-007-009-015-016-024-190200-
NORTHWEST ILLINOIS

CITY           SKY/WX    TMP DP  RH WIND       PRES   REMARKS
MOLINE         PTCLDY    78  63  59 N7        29.86F HX  80
STERLING*      CLOUDY    75  63  66 NW5       29.88S
SAVANNA*       CLEAR     72  61  69 N5        29.88S
$$

ILZ003-004-008-010-011-017-018-190200-
NORTH CENTRAL ILLINOIS

CITY           SKY/WX    TMP DP  RH WIND       PRES   REMARKS
ROCKFORD       CLOUDY    73  61  65 NW10      29.89S
FREEPORT*      CLOUDY    70  61  73 NW6       29.91S
ROCHELLE*      CLOUDY    73  62  70 NW5       29.89S
DE KALB*       MOCLDY    71  60  67 W6        29.89S
PERU*          CLOUDY    73  65  75 NW3       29.88S
$$

ILZ005-006-012>014-019>023-190200-
NORTHEAST ILLINOIS

CITY           SKY/WX    TMP DP  RH WIND       PRES   REMARKS
CHICAGO-OHARE  CLOUDY    77  61  57 W12       29.86R
CHICAGO-MIDWAY MOCLDY    78  59  51 W10       29.86R
AURORA         MOCLDY    70  65  84 W5        29.88S
LANSING*       CLEAR     74  58  57 W6        29.87S
JOLIET*        CLEAR     76  65  67 CALM      29.88S
WAUKEGAN       MOCLDY    72  64  76 CALM      29.85R
DUPAGE AIRPORT CLOUDY    74  62  66 W7        29.87R
WHEELING       CLOUDY    76  63  64 W6        29.87R
MORRIS*        CLEAR     73  64  73 CALM      29.87S
ROMEOVILLE*    PTCLDY    72  60  65 NW7       29.87S
NORTHERLY ISL    N/A     74  65  73 E5          N/A
$$

LMZ740>746-190200-
SOUTHERN LAKE MICHIGAN

STATION/POSITION SKY/WX   TEMP    WIND        PRES    VSBY  WAVE
                          AIR SEA DIR/SP/G                  HT/PER
                          (F)     (DEG/KT/KT) (MB)    (MI)  (FT/S)
SOUTHERN BUOY              70 71   90/  4/  4 1010.6          2/ 4
WILMETTE HARBOR            75 73  280/  6/  8   N/A           1/ 2
HARRISON CRIB              74     100/  5/  5   N/A
CALUMET HARBOR             76     320/  3/  6 1010.6R
BURNS HARBOR               74      40/  7/  9 1011.5R
MICHIGAN CITY              72      50/  6/  7   N/A
MICHIGAN CITY 6N           73 75   90/  4/  6   N/A           2/ 5
ST. JOSEPH                 72 74   90/  2/  2 1010.8          2/ 5
$$

ILZ025>027-034>036-040-047-049-050-058-095>099-190200-
WEST-CENTRAL ILLINOIS

CITY           SKY/WX    TMP DP  RH WIND       PRES   REMARKS
QUINCY         CLOUDY    79  67  66 S9        29.86F HX  81
GALESBURG*     CLOUDY    72  68  86 CALM      29.87F
MACOMB*        CLOUDY    76  67  73 SE9       29.85F
JACKSONVILLE*  PTCLDY    77  67  71 SW6       29.90R
PITTSFIELD*    PTCLDY    78  67  69 SW6       29.92R HX  80
$$

ILZ028>032-037-038-041>044-048-051>054-059>061-190200-
CENTRAL ILLINOIS

CITY           SKY/WX    TMP DP  RH WIND       PRES   REMARKS
PONTIAC        CLEAR     73  70  88 W3        29.90R
BLOOMINGTON    PTCLDY    75  67  76 SW6       29.90S
DECATUR        PTCLDY    76  66  71 SW8       29.90S
PEORIA         MOCLDY    76  68  76 CALM      29.88R
LACON*         PTCLDY    74  68  82 CALM      29.87S
LINCOLN*       PTCLDY    80  68  67 SW5       29.89R HX  82
SPRINGFIELD    CLEAR     79  67  66 SW5       29.89R HX  81
TAYLORVILLE    CLEAR     73  68  84 S6        29.90R
$$

ILZ033-039-045-046-055>057-062-063-190200-
EAST-CENTRAL ILLINOIS

CITY           SKY/WX    TMP DP  RH WIND       PRES   REMARKS
CHAMPAIGN      CLOUDY    72  66  81 SW7       29.90S
RANTOUL*       CLEAR     76  67  74 SW5       29.89S
MATTOON        CLOUDY    76  68  76 SW6       29.89F
PARIS*         CLEAR     70  65  84 CALM      29.90S
$$

ILZ079-100>102-190200-
SOUTHWEST ILLINOIS

CITY           SKY/WX    TMP DP  RH WIND       PRES   REMARKS
ALTON          MOCLDY    79  68  69 SW9       29.92R HX  81
BELLEVILLE     CLOUDY    79  68  68 SW6       29.93S HX  81
CAHOKIA*       CLOUDY    82  65  56 S3        29.91S HX  84
SPARTA*        CLOUDY    79  68  69 S3        29.94S HX  81
$$

ILZ064>066-069>071-074>076-080>082-084>086-088>090-092>094-190200-
SOUTH-CENTRAL ILLINOIS

CITY           SKY/WX    TMP DP  RH WIND       PRES   REMARKS
CARBONDALE     CLOUDY    75  71  87 S6        29.94S
CAIRO*         CLEAR     77  69  76 S3        29.95S
MARION         PTCLDY    75  75 100 CALM      29.95S
MT. VERNON       N/A     75  69  81 SW5       29.93R
CENTRALIA*     MOCLDY    77  69  76 S6        29.92S
SALEM*         MOCLDY    78  66  66 S5        29.92R HX  80
METROPOLIS*    CLEAR     76  69  79 CALM      29.96R
$$

ILZ067-068-072-073-078-083-087-091-190200-
SOUTHEAST ILLINOIS

CITY           SKY/WX    TMP DP  RH WIND       PRES   REMARKS
LAWRENCEVILLE  CLEAR     75  66  73 SW6       29.91S
FLORA*         CLOUDY    74  69  84 S5        29.91F
FAIRFIELD*     CLOUDY    77  67  72 CALM      29.91S
HARRISBURG*    CLOUDY    76  70  82 CALM      29.94S
ROBINSON*      CLEAR     71  66  84 S3        29.91S
CARMI*         PTCLDY    72  69  92 SW6       29.92S
$$

ABBREVIATIONS USED IN REMARKS
   TC - TEMPERATURE IN CELSIUS
  WCI - WIND CHILL INDEX
   HX - HEAT INDEX
  VSB - VISIBILITY
$$





USA.gov is the U.S. government's official web portal to all federal, state and local government web resources and services.